FFT318 KSAN-KLAS

Flight info

Callsign FFT318
Flight time 0h 51m
Altitude 29000
Route PADRZ2 CHKNN SEBBY YELAH MISEN RNDRZ4
Aircraft A320/M-SDE3FGHIRWY/LB1

Departure

Time 2026-05-04 02:06
Airport San Diego International Airport (KSAN)

Arrival

Time 2026-05-04 02:57
Airport Harry Reid International Airport (KLAS)
Time Latitude Longitude Altitude Speed Heading
2026-05-04 01:50 32.73380 -117.19813 22 ft 0 kts 207°
2026-05-04 01:58 32.73392 -117.19806 12 ft 2 kts 208°
2026-05-04 01:58 32.73402 -117.19800 24 ft 2 kts 208°
2026-05-04 01:59 32.73416 -117.19791 24 ft 2 kts 210°
2026-05-04 01:59 32.73430 -117.19781 24 ft 2 kts 208°
2026-05-04 01:59 32.73446 -117.19775 29 ft 2 kts 135°
2026-05-04 01:59 32.73454 -117.19792 27 ft 2 kts 107°
2026-05-04 02:00 32.73456 -117.19800 24 ft 0 kts 105°
2026-05-04 02:01 32.73456 -117.19798 24 ft 1 kts 105°
2026-05-04 02:01 32.73444 -117.19748 25 ft 9 kts 106°
2026-05-04 02:01 32.73427 -117.19680 25 ft 8 kts 106°
2026-05-04 02:02 32.73411 -117.19617 24 ft 7 kts 106°
2026-05-04 02:02 32.73385 -117.19506 26 ft 25 kts 105°
2026-05-04 02:02 32.73322 -117.19248 21 ft 31 kts 106°
2026-05-04 02:02 32.73265 -117.19012 22 ft 29 kts 106°
2026-05-04 02:03 32.73210 -117.18785 28 ft 28 kts 106°
2026-05-04 02:03 32.73157 -117.18566 26 ft 29 kts 107°
2026-05-04 02:03 32.73100 -117.18329 28 ft 30 kts 106°
2026-05-04 02:03 32.73037 -117.18076 24 ft 33 kts 107°
2026-05-04 02:04 32.72972 -117.17811 20 ft 29 kts 106°
2026-05-04 02:04 32.72954 -117.17662 22 ft 13 kts 78°
2026-05-04 02:04 32.72979 -117.17580 26 ft 9 kts 52°
2026-05-04 02:04 32.73024 -117.17588 24 ft 7 kts 307°
2026-05-04 02:05 32.73039 -117.17653 23 ft 13 kts 286°
2026-05-04 02:05 32.73127 -117.18031 21 ft 85 kts 285°
2026-05-04 02:05 32.73348 -117.18929 22 ft 142 kts 286°
2026-05-04 02:05 32.73643 -117.20165 422 ft 157 kts 286°
2026-05-04 02:06 32.74025 -117.21368 1142 ft 159 kts 297°
2026-05-04 02:06 32.74657 -117.22475 1775 ft 162 kts 303°
2026-05-04 02:06 32.75328 -117.23589 2330 ft 172 kts 302°
2026-05-04 02:06 32.76031 -117.24830 2730 ft 190 kts 302°
2026-05-04 02:07 32.76808 -117.26210 3111 ft 212 kts 302°
2026-05-04 02:07 32.77673 -117.27766 3498 ft 239 kts 302°
2026-05-04 02:07 32.78599 -117.29464 4176 ft 253 kts 301°
2026-05-04 02:07 32.79575 -117.31246 5084 ft 259 kts 301°
2026-05-04 02:08 32.80586 -117.33041 6041 ft 263 kts 304°
2026-05-04 02:08 32.81746 -117.34767 6873 ft 272 kts 306°
2026-05-04 02:08 32.82929 -117.36548 7750 ft 276 kts 304°
2026-05-04 02:08 32.84125 -117.38341 8671 ft 278 kts 304°
2026-05-04 02:09 32.85330 -117.40163 9593 ft 282 kts 303°
2026-05-04 02:09 32.86539 -117.42043 10338 ft 289 kts 302°
2026-05-04 02:09 32.87778 -117.44016 10735 ft 310 kts 302°
2026-05-04 02:09 32.89109 -117.46145 11061 ft 330 kts 302°
2026-05-04 02:10 32.90506 -117.48377 11638 ft 339 kts 303°
2026-05-04 02:10 32.91955 -117.50632 12324 ft 346 kts 303°
2026-05-04 02:10 32.93414 -117.52888 13054 ft 350 kts 303°
2026-05-04 02:10 32.94926 -117.55186 13841 ft 353 kts 303°
2026-05-04 02:11 32.96458 -117.57489 14487 ft 357 kts 303°
2026-05-04 02:11 32.97999 -117.59810 14836 ft 356 kts 302°
2026-05-04 02:11 32.99499 -117.62140 14956 ft 353 kts 302°
2026-05-04 02:11 33.00978 -117.64474 15027 ft 353 kts 301°
2026-05-04 02:12 33.02461 -117.66819 14997 ft 354 kts 301°
2026-05-04 02:12 33.03951 -117.69164 14999 ft 354 kts 302°
2026-05-04 02:12 33.05445 -117.71504 14992 ft 354 kts 302°
2026-05-04 02:12 33.07118 -117.73695 14989 ft 360 kts 311°
2026-05-04 02:13 33.09002 -117.75622 14994 ft 362 kts 314°
2026-05-04 02:13 33.10930 -117.77574 14993 ft 362 kts 314°
2026-05-04 02:13 33.12847 -117.79519 14990 ft 362 kts 314°
2026-05-04 02:13 33.14770 -117.81472 14995 ft 362 kts 314°
2026-05-04 02:14 33.16667 -117.83402 14987 ft 362 kts 314°
2026-05-04 02:14 33.18582 -117.85352 14988 ft 362 kts 314°
2026-05-04 02:14 33.20503 -117.87301 14997 ft 362 kts 314°
2026-05-04 02:14 33.22447 -117.89224 14995 ft 363 kts 315°
2026-05-04 02:15 33.24406 -117.91133 14988 ft 363 kts 315°
2026-05-04 02:15 33.26374 -117.93040 14994 ft 363 kts 315°
2026-05-04 02:15 33.28341 -117.94943 14985 ft 363 kts 315°
2026-05-04 02:15 33.30303 -117.96844 14987 ft 363 kts 315°
2026-05-04 02:16 33.32267 -117.98751 14980 ft 363 kts 315°
2026-05-04 02:16 33.34205 -118.00640 14981 ft 363 kts 315°
2026-05-04 02:16 33.36162 -118.02558 14978 ft 363 kts 315°
2026-05-04 02:16 33.38111 -118.04473 14979 ft 363 kts 315°
2026-05-04 02:17 33.40069 -118.06398 15334 ft 368 kts 314°
2026-05-04 02:17 33.42052 -118.08343 16118 ft 368 kts 314°
2026-05-04 02:17 33.44032 -118.10285 16886 ft 368 kts 313°
2026-05-04 02:17 33.46017 -118.12231 17632 ft 369 kts 312°
2026-05-04 02:18 33.48005 -118.14182 18373 ft 369 kts 311°
2026-05-04 02:18 33.49993 -118.16136 18976 ft 371 kts 311°
2026-05-04 02:18 33.51993 -118.18106 19572 ft 373 kts 311°
2026-05-04 02:18 33.53979 -118.20063 20156 ft 375 kts 311°
2026-05-04 02:19 33.56001 -118.22053 20731 ft 378 kts 312°
2026-05-04 02:19 33.58203 -118.23864 21322 ft 390 kts 321°
2026-05-04 02:19 33.60672 -118.25332 21880 ft 399 kts 326°
2026-05-04 02:19 33.63209 -118.26727 22417 ft 402 kts 326°
2026-05-04 02:20 33.65764 -118.28130 22942 ft 405 kts 326°
2026-05-04 02:20 33.68364 -118.29506 23454 ft 413 kts 330°
2026-05-04 02:20 33.71235 -118.30277 23875 ft 436 kts 346°
2026-05-04 02:20 33.74333 -118.30073 24274 ft 458 kts
2026-05-04 02:21 33.77394 -118.28756 24681 ft 480 kts 22°
2026-05-04 02:21 33.80111 -118.26292 25066 ft 499 kts 43°
2026-05-04 02:21 33.82247 -118.23028 25379 ft 506 kts 51°
2026-05-04 02:21 33.84335 -118.19534 25726 ft 510 kts 51°
2026-05-04 02:22 33.86367 -118.16083 26059 ft 514 kts 52°
2026-05-04 02:22 33.88432 -118.12551 26395 ft 517 kts 52°
2026-05-04 02:22 33.90516 -118.08995 26732 ft 520 kts 51°
2026-05-04 02:22 33.92611 -118.05435 27054 ft 523 kts 51°
2026-05-04 02:23 33.94729 -118.01852 27431 ft 525 kts 51°
2026-05-04 02:23 33.96860 -117.98256 27771 ft 527 kts 51°
2026-05-04 02:23 33.98956 -117.94719 28123 ft 530 kts 51°
2026-05-04 02:23 34.01107 -117.91083 28430 ft 533 kts 51°
2026-05-04 02:24 34.03262 -117.87430 28728 ft 536 kts 51°
2026-05-04 02:24 34.05431 -117.83743 28963 ft 539 kts 51°
2026-05-04 02:24 34.09719 -117.76485 29007 ft 526 kts 49°
2026-05-04 02:25 34.14253 -117.69600 29008 ft 521 kts 45°
2026-05-04 02:25 34.18981 -117.62972 29037 ft 520 kts 44°
2026-05-04 02:26 34.23624 -117.56370 28985 ft 517 kts 45°
2026-05-04 02:26 34.28181 -117.49666 28940 ft 514 kts 46°
2026-05-04 02:27 34.32674 -117.42993 28894 ft 515 kts 46°
2026-05-04 02:27 34.37206 -117.36286 28901 ft 515 kts 46°
2026-05-04 02:28 34.41758 -117.29574 28871 ft 515 kts 46°
2026-05-04 02:28 34.46303 -117.22867 28899 ft 515 kts 46°
2026-05-04 02:29 34.50843 -117.16144 28832 ft 514 kts 46°
2026-05-04 02:29 34.55361 -117.09432 28864 ft 513 kts 47°
2026-05-04 02:30 34.59833 -117.02776 28852 ft 510 kts 47°
2026-05-04 02:30 34.64312 -116.96103 28826 ft 509 kts 47°
2026-05-04 02:31 34.68775 -116.89439 28819 ft 508 kts 47°
2026-05-04 02:31 34.73231 -116.82768 28815 ft 507 kts 47°
2026-05-04 02:32 34.77683 -116.76091 28807 ft 507 kts 47°
2026-05-04 02:32 34.82098 -116.69458 28805 ft 507 kts 47°
2026-05-04 02:33 34.86817 -116.63140 28798 ft 500 kts 35°
2026-05-04 02:33 34.92238 -116.57874 28817 ft 498 kts 32°
2026-05-04 02:34 34.97674 -116.52618 28804 ft 498 kts 32°
2026-05-04 02:34 35.03063 -116.47378 28790 ft 498 kts 33°
2026-05-04 02:35 35.08574 -116.42019 28647 ft 510 kts 33°
2026-05-04 02:35 35.11254 -116.39124 27463 ft 517 kts 41°
2026-05-04 02:35 35.13719 -116.35942 26136 ft 513 kts 43°
2026-05-04 02:36 35.16160 -116.32761 25274 ft 509 kts 43°
2026-05-04 02:36 35.18567 -116.29615 24735 ft 503 kts 44°
2026-05-04 02:36 35.20927 -116.26539 24146 ft 499 kts 43°
2026-05-04 02:36 35.23296 -116.23465 23564 ft 495 kts 44°
2026-05-04 02:37 35.25632 -116.20367 22956 ft 492 kts 45°
2026-05-04 02:37 35.27909 -116.17270 22432 ft 485 kts 46°
2026-05-04 02:37 35.30131 -116.14192 21924 ft 479 kts 47°
2026-05-04 02:37 35.32316 -116.11145 21431 ft 473 kts 47°
2026-05-04 02:38 35.34480 -116.08134 20938 ft 468 kts 47°
2026-05-04 02:38 35.36627 -116.05162 20436 ft 463 kts 47°
2026-05-04 02:38 35.38757 -116.02224 19931 ft 458 kts 47°
2026-05-04 02:38 35.40866 -115.99323 19519 ft 452 kts 47°
2026-05-04 02:39 35.42924 -115.96493 18990 ft 446 kts 47°
2026-05-04 02:39 35.44956 -115.93702 18265 ft 433 kts 48°
2026-05-04 02:39 35.46935 -115.90976 17564 ft 425 kts 49°
2026-05-04 02:39 35.48873 -115.88303 17300 ft 414 kts 49°
2026-05-04 02:40 35.50769 -115.85682 17041 ft 403 kts 49°
2026-05-04 02:40 35.52613 -115.83138 16767 ft 396 kts 49°
2026-05-04 02:40 35.54433 -115.80637 16555 ft 385 kts 49°
2026-05-04 02:40 35.56154 -115.78254 16394 ft 361 kts 50°
2026-05-04 02:41 35.57787 -115.75982 15948 ft 350 kts 50°
2026-05-04 02:41 35.59380 -115.73757 15692 ft 346 kts 50°
2026-05-04 02:41 35.60977 -115.71557 15432 ft 343 kts 50°
2026-05-04 02:41 35.62573 -115.69399 15409 ft 341 kts 50°
2026-05-04 02:42 35.64180 -115.67244 15402 ft 342 kts 49°
2026-05-04 02:42 35.65769 -115.65116 15321 ft 342 kts 49°
2026-05-04 02:42 35.67374 -115.62963 15145 ft 339 kts 50°
2026-05-04 02:42 35.68966 -115.60822 14985 ft 338 kts 50°
2026-05-04 02:43 35.70548 -115.58688 14817 ft 336 kts 50°
2026-05-04 02:43 35.72134 -115.56577 14634 ft 335 kts 46°
2026-05-04 02:43 35.73936 -115.54811 14476 ft 336 kts 33°
2026-05-04 02:43 35.75954 -115.53380 14304 ft 335 kts 31°
2026-05-04 02:44 35.77985 -115.51967 14137 ft 334 kts 31°
2026-05-04 02:44 35.80006 -115.50559 13967 ft 333 kts 31°
2026-05-04 02:44 35.82024 -115.49146 13798 ft 331 kts 31°
2026-05-04 02:44 35.84026 -115.47741 13613 ft 331 kts 31°
2026-05-04 02:45 35.86031 -115.46333 13444 ft 331 kts 32°
2026-05-04 02:45 35.88005 -115.44944 13276 ft 330 kts 31°
2026-05-04 02:45 35.89999 -115.43541 13111 ft 330 kts 31°
2026-05-04 02:45 35.91990 -115.42143 12825 ft 330 kts 31°
2026-05-04 02:46 35.93988 -115.40743 12433 ft 329 kts 31°
2026-05-04 02:46 35.95986 -115.39347 12049 ft 328 kts 31°
2026-05-04 02:46 35.97300 -115.38428 11819 ft 326 kts 30°
2026-05-04 02:46 35.99152 -115.36841 11412 ft 324 kts 46°
2026-05-04 02:47 36.00514 -115.34664 11037 ft 318 kts 65°
2026-05-04 02:47 36.01337 -115.31286 10668 ft 306 kts 89°
2026-05-04 02:47 36.01295 -115.28696 10413 ft 302 kts 98°
2026-05-04 02:47 36.01208 -115.26950 10235 ft 301 kts 98°
2026-05-04 02:48 36.01080 -115.24368 9973 ft 301 kts 98°
2026-05-04 02:48 36.00954 -115.21829 9708 ft 299 kts 98°
2026-05-04 02:48 36.00827 -115.19265 9453 ft 296 kts 98°
2026-05-04 02:48 36.00707 -115.16780 9348 ft 284 kts 98°
2026-05-04 02:49 36.00591 -115.14390 9227 ft 273 kts 98°
2026-05-04 02:49 36.00476 -115.12092 9105 ft 263 kts 98°
2026-05-04 02:49 36.00363 -115.09873 8960 ft 255 kts 99°
2026-05-04 02:49 36.00251 -115.07699 8709 ft 252 kts 98°
2026-05-04 02:50 36.00139 -115.05543 8480 ft 251 kts 99°
2026-05-04 02:50 36.00028 -115.03390 8255 ft 251 kts 98°
2026-05-04 02:50 35.99919 -115.01247 8077 ft 250 kts 98°
2026-05-04 02:50 35.99865 -114.99092 7981 ft 252 kts 96°
2026-05-04 02:51 35.99853 -114.96928 8002 ft 252 kts 96°
2026-05-04 02:51 35.99853 -114.94761 8007 ft 252 kts 94°
2026-05-04 02:51 36.00236 -114.92669 8004 ft 261 kts 63°
2026-05-04 02:51 36.01494 -114.91028 8011 ft 269 kts 33°
2026-05-04 02:52 36.03184 -114.90071 7999 ft 267 kts 13°
2026-05-04 02:52 36.05006 -114.89845 7760 ft 262 kts 351°
2026-05-04 02:52 36.06721 -114.90447 7501 ft 250 kts 327°
2026-05-04 02:52 36.08081 -114.91742 7077 ft 247 kts 303°
2026-05-04 02:53 36.08937 -114.93526 6638 ft 235 kts 282°
2026-05-04 02:53 36.09220 -114.95428 6211 ft 218 kts 262°
2026-05-04 02:53 36.09004 -114.97212 5889 ft 202 kts 246°
2026-05-04 02:53 36.08462 -114.98765 5405 ft 194 kts 239°
2026-05-04 02:54 36.07906 -115.00235 4926 ft 189 kts 239°
2026-05-04 02:54 36.07412 -115.01724 4476 ft 186 kts 255°
2026-05-04 02:54 36.07378 -115.03297 4087 ft 178 kts 266°
2026-05-04 02:54 36.07388 -115.04765 3748 ft 165 kts 265°
2026-05-04 02:55 36.07354 -115.07365 3162 ft 144 kts 264°
2026-05-04 02:55 36.07372 -115.08590 2834 ft 141 kts 264°
2026-05-04 02:55 36.07375 -115.09768 2628 ft 136 kts 262°
2026-05-04 02:56 36.07375 -115.10931 2402 ft 135 kts 260°
2026-05-04 02:56 36.07367 -115.12110 2185 ft 141 kts 263°
2026-05-04 02:56 36.07368 -115.13271 2077 ft 126 kts 262°
2026-05-04 02:56 36.07365 -115.14179 2085 ft 81 kts 270°
2026-05-04 02:57 36.07368 -115.14694 2092 ft 44 kts 273°
2026-05-04 02:57 36.07442 -115.14986 2098 ft 33 kts 300°
2026-05-04 02:57 36.07534 -115.15138 2103 ft 16 kts 324°
2026-05-04 02:57 36.07611 -115.15183 2110 ft 10 kts 336°
2026-05-04 02:58 36.07725 -115.15246 2107 ft 18 kts 335°
2026-05-04 02:58 36.07792 -115.15284 2102 ft 11 kts 335°
2026-05-04 02:58 36.07864 -115.15288 2100 ft 11 kts 40°
2026-05-04 02:58 36.07878 -115.15187 2099 ft 17 kts 93°
2026-05-04 02:59 36.07874 -115.15040 2098 ft 16 kts 94°
2026-05-04 02:59 36.07865 -115.14908 2098 ft 15 kts 96°
2026-05-04 02:59 36.07857 -115.14790 2097 ft 13 kts 94°
2026-05-04 02:59 36.07851 -115.14679 2097 ft 13 kts 94°
2026-05-04 03:00 36.07844 -115.14576 2096 ft 11 kts 95°
2026-05-04 03:00 36.07838 -115.14484 2096 ft 10 kts 93°
2026-05-04 03:00 36.07833 -115.14403 2096 ft 9 kts 96°
2026-05-04 03:00 36.07826 -115.14284 2096 ft 21 kts 92°
2026-05-04 03:01 36.07866 -115.14155 2095 ft 14 kts 18°
2026-05-04 03:01 36.07951 -115.14130 2094 ft 12 kts 44°
2026-05-04 03:01 36.07993 -115.14043 2094 ft 11 kts 59°